Regional Weather Roundup
Issued by NWS

Home | Current Version | Previous Version | Graphics & Text | Print | Product List | Glossary On
Versions: 1 2 3 4 5 6 7 8 9 10 11 12 13 14 15 16 17 18 19 20 21 22 23 24 25 26 27 28 29 30 31 32 33 34 35 36 37 38 39 40 41 42 43 44 45 46 47 48 49 50
615
ASUS45 KCYS 251510
RWRWY

WYOMING REGIONAL WEATHER ROUNDUP
NATIONAL WEATHER SERVICE CHEYENNE WY
900 AM MDT MON JUL 25 2016

NOTE:  "FAIR" INDICATES FEW OR NO CLOUDS BELOW 12,000 FEET
WITH NO SIGNIFICANT WEATHER AND/OR OBSTRUCTIONS TO VISIBILITY.

WYZ001-251600-
YELLOWSTONE NATIONAL PARK

CITY           SKY/WX    TMP DP  RH WIND       PRES   REMARKS
LK YELLOWSTONE   N/A     55  44  66 VRB3      30.41R
W YELLOWSTONE  NOT AVBL

$$
WYZ002>013-054>058-071-098>099-251600-
NORTHERN WYOMING

CITY           SKY/WX    TMP DP  RH WIND       PRES   REMARKS
JACKSON        SUNNY     55  34  44 CALM      30.34R
CODY           FAIR      73  37  27 W3        30.16S
GREYBULL       FAIR      70  36  28 CALM      30.09R
WORLAND        FAIR      71  35  26 CALM      30.10S
SHERIDAN       FAIR      76  46  34 CALM      30.08R
BUFFALO        FAIR      78  36  21 CALM      30.15S
GILLETTE       FAIR      75  54  47 S14       30.12S
HULETT         FAIR      81  54  39 W8        30.12S
NEWCASTLE      FAIR      73  48  40 SE10      30.15S

$$
WYZ014>020-022>026-101>103-251600-
CENTRAL WYOMING

CITY           SKY/WX    TMP DP  RH WIND       PRES   REMARKS
BIG PINEY      FAIR      65  29  25 NE5       30.35R
PINEDALE       FAIR      59  32  36 W5        30.35F
DUBOIS         FAIR      64  30  27 NW13      30.32S HAZE
LANDER         FAIR      71  38  29 CALM      30.22R
RIVERTON         N/A    N/A N/A N/A MISG      30.21R
CASPER         FAIR      69  52  54 S3        30.19S
DOUGLAS          N/A    N/A N/A N/A MISG      30.18F

$$
WYZ021-027>030-104>119-251600-
SOUTHERN WYOMING

CITY           SKY/WX    TMP DP  RH WIND       PRES   REMARKS
EVANSTON       FAIR      68  27  21 S6        30.33R
KEMMERER         N/A     61  32  33 N9        30.35S
FORT BRIDGER   FAIR      72  24  16 CALM      30.35S
ROCK SPRINGS   FAIR      69  19  15 CALM      30.32R
DIXON          FAIR      67  37  33 E7        30.34R
RAWLINS        FAIR      68  33  27 VRB3      30.31S
SARATOGA       FAIR      70  39  32 SE7       30.34S
LARAMIE        FAIR      68  42  38 E5        30.33S
CHEYENNE       FAIR      68  58  70 S7        30.25R
TORRINGTON     FAIR      71  56  58 SE13      30.14F
PINE BLUFFS    FAIR      64  57  77 SE13      30.24S

$$




USA.gov is the U.S. government's official web portal to all federal, state and local government web resources and services.